Vertical_Velocity
-3 -11 -19 18 11 4 -1 -4 -2 0 1 -12 1 -4 5 -1 -3 1 -4 -1 1 1 -6 -1 -0 1 4 0 3 -2 1 -1 1 0 -0 1 -1 -1 2 -0 2 3 1 0
-8 -33 14 3 -4 -6 -4 -6 -1 -2 -1 -9 -3 1 -1 -6 -0 1 -2 -3 -1 4 3 -6 -2 -2 3 0 2 3 0 1 2 2 1 1 -1 -0 1 3 3 1 0 -0
-6 15 9 4 3 -6 4 -3 3 5 -1 -8 -2 -9 -7 2 -3 -2 3 -4 -3 -4 4 4 -5 0 -1 2 -0 1 -2 -2 1 -0 -0 1 2 4 3 0 -1 -2 1 4
-4 -5 2 4 -5 -2 0 9 7 1 0 -5 -5 -20 -9 1 -2 -6 -1 3 4 -2 -2 -0 1 -6 -3 2 0 -2 1 0 -2 -1 -0 1 2 2 1 1 1 2 1 1
3 -1 0 -9 21 3 16 13 9 2 -4 -1 -6 -35 17 -8 -3 5 3 0 -0 -1 -3 1 2 1 -2 -3 3 -1 -4 -1 1 2 -1 -3 1 3 0 2 1 2 3 -0
8 2 -9 8 4 -2 14 -1 1 3 7 -31 11 -18 -0 0 16 -2 -1 2 -2 -0 -5 0 1 -0 4 -4 -2 3 1 -1 -3 1 1 2 -0 0 3 1 1 -0 -1 1
3 -6 -5 -0 3 -7 -5 1 -9 -5 -14 -71 13 -25 22 3 9 9 -1 -5 -0 2 -3 1 -0 -1 -1 1 -2 1 2 2 -2 -2 1 1 -0 -1 0 -1 -1 -1 -1 2
-6 -11 2 18 -2 9 15 22 -5 -5 -22 1 18 -78 -20 7 5 8 -3 -3 -4 2 -3 -2 -1 -4 1 5 1 -2 2 -0 1 -0 1 -0 0 2 2 1 0 3 0 -1
1 -17 9 11 6 11 17 -58 64 -1 -8 -1 -8 -17 2 1 10 10 7 -7 -4 -3 -1 -0 1 1 -1 1 2 -1 -3 -0 2 2 -0 2 -1 2 4 -0 1 5 3 3
4 -1 9 11 -1 -12 -34 55 -8 -16 -26 -19 -20 -16 -16 7 10 7 -2 2 -1 -8 2 0 -1 -5 -2 -2 -1 -1 -1 -2 1 4 -2 3 -1 -2 1 -6 3 4 2 3
9 -4 8 5 -18 16 2 -5 -15 14 -10 -12 -16 -28 7 4 2 1 2 -4 -4 -0 -2 -3 -2 -1 -1 -1 1 -1 2 1 -1 -4 -3 -4 2 -0 -1 -1 2 4 -2 2
31 7 -8 7 12 8 -1 5 10 -1 -33 -5 2 -21 1 7 6 -0 -1 -4 -1 -2 -1 -3 -1 2 3 1 2 1 2 1 -0 2 2 3 3 4 3 5 2 -0 4 -2
22 -22 3 8 -8 -15 -1 -3 2 5 5 -41 3 -27 7 3 3 1 -3 2 3 2 4 -1 -1 -0 1 2 -0 -0 0 -0 -2 1 1 3 3 0 -0 3 4 0 3 3
12 -0 -11 -4 13 18 -10 8 9 5 11 -14 -24 9 0 3 7 6 4 -2 3 3 7 1 -0 1 -3 -3 0 0 0 0 -0 0 -0 0 -0 -0 2 0 3 2 -0 -0
2 -15 -1 11 -2 0 9 1 2 -4 -25 -4 2 -12 14 11 1 10 -2 -12 5 1 1 -2 0 1 0 -2 -2 -3 -3 -1 1 -1 -0 0 -2 -1 0 0 1 2 2 0
3 -22 2 -4 8 -5 -8 4 -5 -18 -10 -14 -21 -39 6 12 2 -16 2 -4 -0 3 6 2 1 -1 3 3 0 1 1 -2 -3 -3 -1 -1 -0 0 -0 -0 -1 -1 -0 -1
-1 -14 1 -43 19 24 -9 -56 8 -6 14 -2 -9 -32 18 6 10 8 0 -2 4 -7 -2 -1 3 3 4 3 -0 2 3 2 1 1 1 -0 -1 -3 -3 -2 -2 -2 -2 -2
0 -3 3 -35 19 -12 -86 20 -9 -11 11 17 -13 3 2 -2 4 10 2 -5 -1 -1 -4 1 4 7 3 2 1 1 3 2 3 1 2 3 2 1 1 1 -0 0 -0 -0
6 7 12 -8 9 -25 -25 -25 -17 -3 9 38 -7 6 12 6 13 -14 -6 -1 -0 -4 0 1 -2 -5 -2 -3 -2 -4 -3 -1 0 1 1 -0 0 1 1 1 -1 -1 -1 -0
9 16 -1 13 16 -31 4 4 28 9 -59 -16 -2 15 -3 8 -29 -3 2 3 5 -0 -0 0 -1 -3 -3 -5 -4 -2 2 3 4 2 2 2 1 1 1 1 0 2 3 3
-6 -7 -20 3 1 -36 6 15 15 -14 -56 -10 -15 19 -6 -31 -4 32 9 8 8 -0 3 6 3 5 3 3 4 3 1 -0 -0 1 1 -0 0 0 2 1 -0 -1 -0 1
7 16 -7 12 -4 -42 4 -5 -18 30 4 10 14 1 -10 -1 3 -2 -3 -3 2 -1 8 7 5 4 3 5 2 -2 -2 -2 -1 0 -0 0 0 -2 -1 -0 -3 -5 -4 -3
1 2 -12 5 12 -7 19 -4 -9 -1 -10 -9 -4 -2 7 1 5 3 6 6 4 5 5 3 1 6 4 1 0 -1 -1 -1 -0 -1 1 -1 -4 -3 -2 0 1 -0 1 1
-4 4 -13 2 -8 7 -7 4 7 -6 -3 3 1 -3 -5 -3 3 1 -1 2 1 3 5 5 3 4 2 1 2 -1 0 1 1 -1 -1 -3 -3 -3 -6 -6 -5 -2 0 -1
8 28 -3 3 13 18 7 -1 8 2 1 1 -2 -1 -0 -2 -1 4 5 5 5 4 4 3 2 1 1 -1 4 1 2 -0 -3 -4 -2 -4 -3 -1 -1 -3 -2 -1 -2 1
5 -5 14 2 12 15 3 2 6 5 1 0 -4 3 4 4 3 2 2 3 4 4 3 2 4 5 5 4 1 1 -4 -2 -3 -4 -4 -4 -4 -5 -5 -3 -3 -5 -4 -5
Height
5734 5739 5754 5767 5769 5774 5780 5785 5791 5799 5802 5802 5807 5816 5817 5818 5820 5825 5828 5832 5836 5839 5839 5843 5847 5848 5851 5852 5853 5854 5857 5858 5859 5859 5860 5860 5861 5863 5864 5864 5865 5864 5863 5863
5726 5735 5751 5753 5756 5763 5768 5774 5782 5788 5794 5795 5800 5807 5813 5811 5814 5820 5823 5827 5830 5834 5835 5837 5840 5843 5846 5846 5848 5850 5850 5852 5853 5854 5854 5857 5857 5858 5859 5859 5859 5859 5859 5858
5721 5735 5734 5739 5746 5754 5761 5767 5773 5779 5784 5785 5789 5794 5805 5808 5809 5814 5819 5822 5823 5827 5831 5833 5834 5837 5839 5842 5844 5843 5843 5845 5847 5848 5849 5851 5853 5853 5854 5853 5852 5852 5853 5855
5711 5716 5723 5731 5738 5745 5752 5760 5763 5766 5771 5777 5779 5781 5795 5802 5805 5806 5813 5816 5819 5821 5823 5826 5828 5829 5833 5836 5834 5836 5837 5839 5840 5842 5843 5845 5846 5847 5847 5847 5847 5847 5847 5847
5709 5711 5716 5721 5736 5735 5744 5747 5751 5754 5759 5765 5769 5770 5785 5793 5796 5805 5809 5811 5813 5813 5816 5819 5821 5824 5825 5827 5829 5828 5830 5834 5835 5835 5837 5838 5841 5841 5839 5840 5841 5841 5841 5840
5697 5703 5705 5716 5721 5726 5733 5735 5739 5743 5747 5746 5764 5764 5769 5785 5793 5800 5803 5804 5806 5807 5811 5814 5815 5815 5818 5820 5822 5823 5824 5826 5828 5829 5830 5831 5832 5833 5833 5833 5833 5833 5834 5835
5687 5693 5697 5705 5710 5716 5720 5726 5729 5731 5729 5741 5753 5750 5763 5774 5787 5795 5796 5797 5800 5802 5804 5808 5811 5811 5812 5812 5814 5814 5817 5818 5820 5821 5823 5824 5824 5824 5826 5827 5827 5826 5827 5828
5679 5685 5690 5699 5703 5712 5714 5716 5719 5721 5724 5740 5729 5740 5754 5766 5776 5787 5788 5790 5792 5794 5797 5800 5803 5806 5807 5806 5806 5806 5808 5810 5811 5812 5815 5816 5818 5819 5821 5822 5821 5820 5819 5819
5670 5673 5683 5689 5693 5699 5705 5703 5721 5712 5716 5719 5720 5736 5743 5754 5765 5775 5781 5782 5785 5788 5789 5792 5794 5797 5799 5800 5799 5799 5799 5801 5802 5805 5807 5810 5810 5811 5812 5811 5812 5812 5811 5811
5660 5666 5672 5679 5683 5687 5694 5705 5702 5704 5707 5709 5713 5723 5730 5741 5752 5761 5770 5774 5776 5778 5781 5783 5786 5788 5790 5791 5793 5793 5793 5794 5795 5797 5799 5801 5801 5801 5802 5802 5802 5801 5801 5800
5649 5654 5662 5667 5670 5678 5682 5686 5690 5695 5698 5700 5707 5711 5723 5727 5737 5746 5757 5762 5767 5770 5773 5775 5777 5779 5782 5783 5785 5786 5786 5787 5788 5789 5791 5793 5793 5792 5791 5791 5791 5790 5789 5789
5644 5645 5648 5659 5665 5671 5675 5679 5685 5687 5696 5698 5698 5701 5712 5717 5724 5732 5745 5753 5757 5760 5763 5765 5768 5770 5772 5776 5777 5778 5780 5780 5780 5781 5782 5783 5783 5783 5782 5782 5781 5779 5778 5776
5634 5632 5639 5645 5653 5659 5664 5669 5675 5682 5683 5682 5688 5694 5706 5713 5715 5721 5731 5740 5745 5749 5752 5754 5758 5761 5763 5766 5768 5770 5771 5772 5772 5773 5773 5773 5773 5773 5773 5772 5771 5769 5767 5765
5621 5625 5628 5636 5645 5654 5658 5660 5665 5670 5670 5681 5680 5692 5698 5703 5707 5711 5718 5729 5733 5736 5740 5744 5747 5749 5751 5754 5756 5759 5760 5761 5762 5762 5763 5762 5762 5763 5762 5760 5759 5757 5755 5753
5609 5614 5619 5627 5632 5637 5643 5649 5656 5658 5669 5665 5682 5680 5691 5697 5700 5704 5710 5716 5722 5725 5728 5732 5735 5737 5740 5743 5745 5747 5748 5748 5750 5750 5751 5751 5751 5750 5749 5747 5745 5744 5742 5741
5600 5606 5612 5616 5624 5628 5631 5636 5642 5647 5657 5657 5667 5670 5682 5686 5687 5690 5698 5700 5707 5712 5716 5719 5723 5727 5730 5732 5733 5734 5736 5737 5737 5738 5738 5738 5737 5736 5736 5734 5733 5732 5730 5727
5591 5598 5601 5604 5617 5618 5612 5627 5637 5639 5645 5653 5654 5670 5670 5676 5679 5682 5686 5690 5696 5700 5705 5709 5714 5716 5717 5719 5720 5722 5723 5723 5723 5723 5723 5723 5723 5722 5721 5720 5718 5715 5713 5711
5585 5591 5593 5600 5601 5591 5612 5619 5630 5632 5637 5644 5649 5656 5657 5663 5667 5668 5669 5675 5681 5686 5692 5698 5701 5703 5705 5707 5708 5710 5711 5711 5711 5711 5711 5710 5709 5708 5707 5705 5704 5702 5700 5699
5578 5581 5584 5586 5589 5594 5601 5613 5621 5622 5631 5637 5641 5647 5649 5650 5652 5654 5658 5665 5670 5676 5680 5684 5688 5691 5693 5695 5697 5698 5698 5698 5698 5698 5697 5696 5696 5694 5693 5691 5689 5687 5685 5683
5567 5572 5572 5580 5577 5579 5601 5610 5615 5612 5611 5627 5629 5634 5636 5637 5638 5651 5653 5656 5659 5663 5668 5672 5674 5677 5679 5681 5682 5684 5684 5685 5685 5685 5684 5683 5682 5681 5680 5678 5676 5674 5671 5669
5557 5562 5560 5568 5570 5579 5591 5597 5598 5599 5621 5613 5619 5622 5623 5625 5637 5639 5639 5644 5646 5650 5655 5659 5662 5665 5667 5669 5671 5672 5672 5672 5672 5671 5670 5669 5668 5667 5665 5663 5662 5660 5658 5656
5549 5549 5554 5558 5562 5571 5579 5584 5590 5601 5604 5604 5609 5611 5613 5618 5619 5623 5626 5629 5633 5637 5644 5648 5651 5653 5655 5657 5658 5658 5659 5659 5658 5658 5656 5655 5654 5654 5652 5650 5648 5647 5645 5643
5536 5541 5545 5550 5559 5562 5566 5574 5578 5586 5591 5593 5596 5600 5604 5606 5607 5610 5615 5618 5622 5627 5632 5636 5639 5642 5644 5645 5646 5647 5647 5646 5645 5644 5644 5643 5643 5642 5640 5638 5637 5635 5634 5631
5528 5528 5535 5539 5547 5554 5558 5564 5571 5575 5580 5582 5586 5589 5592 5595 5597 5600 5604 5608 5612 5617 5621 5625 5628 5631 5632 5633 5633 5633 5632 5632 5632 5632 5632 5632 5631 5630 5629 5628 5626 5624 5622 5620
5515 5522 5525 5531 5538 5542 5547 5552 5558 5565 5568 5573 5578 5579 5581 5585 5588 5591 5596 5599 5604 5607 5611 5615 5617 5619 5620 5620 5618 5619 5621 5622 5622 5622 5621 5621 5620 5618 5617 5616 5614 5611 5609 5607
5508 5513 5516 5524 5528 5535 5538 5542 5548 5554 5558 5563 5567 5569 5572 5576 5580 5584 5587 5590 5594 5598 5601 5604 5607 5607 5605 5607 5609 5611 5612 5612 5612 5612 5611 5610 5609 5607 5605 5603 5600 5598 5596 5593